User: anonymous   Login
Location: Unspecified
(0.0000°N, 0.0000°E)
Time: 13:00:08
(UTC+00:00)
Language:

OPTUS D3 - Orbit

View from above orbital plane
View from above orbital plane
View from above satellite
View from above satellite

Ground track
Ground track

The orbit data is extracted from the following two-line orbital elements,

1 35756U 09044B   17015.84166567 -.00000161  00000-0  00000+0 0  9998
2 35756   0.0268   9.5380 0004151 301.4419 263.4837  1.00272059 27145
Epoch (UTC): 15 January 2017 20:11:59
Eccentricity: 0.0004151
inclination: 0.0268°
perigee height: 35768 km
apogee height: 35803 km
right ascension of ascending node: 9.5380°
argument of perigee: 301.4419°
revolutions per day: 1.00272059
mean anomaly at epoch: 263.4837°
orbit number at epoch: 2714

The dashed part of the orbit path shows where the satellite is in the earth's shadow,  

DLR